Stations météo

réclame
Mon MeteoGroup
Ouessant, France (7100): Température de l'air & dewpoint: 07.11.2019 06:00:00 - 13.11.2019 06:00:00 (CET)Ouessant, France (7100): Vitesse du vent & gusts: 07.11.2019 06:00:00 - 13.11.2019 06:00:00 (CET)Ouessant, France (7100): Direction du vent: 07.11.2019 06:00:00 - 13.11.2019 06:00:00 (CET)Ouessant, France (7100): reduced air pressure: 07.11.2019 06:00:00 - 13.11.2019 06:00:00 (CET)Ouessant, France (7100): visibility: 07.11.2019 06:00:00 - 13.11.2019 06:00:00 (CET)Ouessant, France (7100): Quantités de précipitations: 07.11.2019 06:00:00 - 13.11.2019 06:00:00 (CET)
Date & Time tt [°C] td [°C] ff [km/h] ff [knt] fx [km/h] fx [knt] dd ppp [hPa] vv [km] rr [mm]
13.11.2019 06:00:00 8,7 5,3 41 22 54 29 NNW 1007,7 - 0,0
13.11.2019 05:00:00 9,0 5,4 29 16 56 30 NW 1007,5 - 0,0
13.11.2019 04:00:00 8,8 4,2 36 20 51 28 NW 1007,7 20 0,0
13.11.2019 03:00:00 8,4 4,6 24 13 48 26 NW 1007,4 - 0,0
13.11.2019 02:00:00 7,6 4,5 22 12 64 35 NW 1007,8 - 0,4
13.11.2019 01:00:00 9,3 3,3 34 19 47 26 NNW 1007,8 20 0,0
13.11.2019 00:00:00 9,0 4,2 31 17 58 32 NNW 1007,8 - 0,0
12.11.2019 23:00:00 9,3 2,4 35 19 55 30 NNW 1007,6 - 0,0
12.11.2019 22:00:00 9,4 4,2 35 19 49 26 NNW 1007,5 20 0,0
12.11.2019 21:00:00 9,1 3,5 34 19 51 27 NNW 1007,6 - 0,0
12.11.2019 20:00:00 9,2 2,7 36 19 53 28 NNW 1007,1 - 0,0
12.11.2019 19:00:00 9,4 5,0 32 18 48 26 NNW 1007,4 10 0,0
12.11.2019 18:00:00 9,2 4,4 36 19 50 27 NNW 1007,1 - 0,0
12.11.2019 17:00:00 9,5 4,1 35 19 54 29 NW 1007,0 - 0,0
12.11.2019 16:00:00 9,6 4,2 37 20 64 34 NW 1007,0 20 0,0
12.11.2019 15:00:00 10,1 4,5 37 20 57 31 NW 1007,3 - 0,0
12.11.2019 14:00:00 10,2 4,8 42 23 61 33 NW 1007,8 - 0,0
12.11.2019 13:00:00 10,1 4,9 44 24 70 38 NW 1008,3 15 0,0
12.11.2019 12:00:00 10,5 5,9 36 20 70 38 NW 1009,0 - 0,0
12.11.2019 11:00:00 10,0 5,2 40 22 64 35 NW 1008,6 - 0,0
12.11.2019 10:00:00 8,8 5,4 39 21 62 33 NW 1008,8 10 0,0
12.11.2019 09:00:00 8,4 5,7 45 24 67 36 NNW 1009,0 - 0,0
12.11.2019 08:00:00 9,2 5,4 42 23 71 38 NW 1008,5 - 0,2
12.11.2019 07:00:00 9,4 6,3 41 22 70 38 NW 1008,9 15 0,0
12.11.2019 06:00:00 9,1 5,5 50 27 74 40 NW 1009,0 - 0,0
12.11.2019 05:00:00 9,3 6,4 45 25 69 37 WNW 1009,2 - 0,0
12.11.2019 04:00:00 8,8 6,6 40 22 69 37 NW 1009,6 - 0,6
12.11.2019 03:00:00 9,4 6,7 38 20 64 35 NW 1010,0 - 0,0
12.11.2019 02:00:00 8,8 7,6 37 20 61 33 NW 1010,1 - 0,4
12.11.2019 01:00:00 9,0 7,0 49 26 63 34 WNW 1010,5 15 0,2
12.11.2019 00:00:00 8,9 6,3 53 28 77 42 NW 1010,5 - 0,2
11.11.2019 23:00:00 9,3 6,2 42 23 71 38 WNW 1010,9 - 0,0
11.11.2019 22:00:00 9,6 7,0 40 21 63 34 WNW 1011,0 18 0,0
11.11.2019 21:00:00 9,5 6,6 42 23 69 37 WNW 1011,1 - 0,2
11.11.2019 20:00:00 9,3 6,4 50 27 77 42 NW 1011,7 - 0,0
11.11.2019 19:00:00 9,6 6,3 41 22 60 33 NW 1011,9 15 0,0
11.11.2019 18:00:00 8,7 5,8 42 23 71 39 WNW 1012,2 - 0,0
11.11.2019 17:00:00 9,3 6,0 44 24 76 41 NW 1012,1 - 0,2
11.11.2019 16:00:00 9,9 7,3 40 21 69 37 WNW 1012,0 10 0,0
11.11.2019 15:00:00 10,0 5,8 44 24 67 36 WNW 1012,0 - 0,0
11.11.2019 14:00:00 10,5 6,4 45 24 68 37 NW 1012,2 - 0,0
11.11.2019 13:00:00 9,3 5,7 50 27 84 45 NW 1012,7 - 1,0
11.11.2019 12:00:00 10,5 4,2 50 27 82 44 NNW 1012,4 - 0,0
11.11.2019 11:00:00 10,2 5,6 49 26 80 43 NNW 1012,1 - 0,0
11.11.2019 10:00:00 9,8 4,8 56 30 85 46 NW 1011,4 12 0,0
11.11.2019 09:00:00 10,1 4,9 63 34 94 51 NNW 1011,1 - 0,0
11.11.2019 08:00:00 10,1 5,3 68 37 92 50 NNW 1010,2 - 0,0
11.11.2019 07:00:00 10,4 5,2 64 35 92 50 NNW 1009,8 - 0,0
11.11.2019 06:00:00 10,4 6,0 70 38 103 56 NNW 1009,4 - 0,0
11.11.2019 05:00:00 10,3 5,5 69 38 100 54 NNW 1008,0 - 0,0
11.11.2019 04:00:00 9,8 9,8 45 25 74 40 WNW 1008,8 20 2,4
11.11.2019 03:00:00 9,7 9,7 41 22 57 31 SSW 1008,7 - 0,2
11.11.2019 02:00:00 9,9 6,6 36 19 50 27 SSW 1009,8 - 0,0
11.11.2019 01:00:00 9,1 5,6 23 12 36 20 SW 1012,0 - 0,0
11.11.2019 00:00:00 9,0 5,4 27 15 37 20 WSW 1012,4 - 0,0
10.11.2019 23:00:00 9,6 6,9 22 12 31 17 WSW 1013,8 - 0,0
10.11.2019 22:00:00 9,3 7,2 19 10 24 13 W 1013,8 20 0,0
10.11.2019 21:00:00 9,4 7,3 16 9 20 11 W 1013,0 - 0,0
10.11.2019 20:00:00 9,7 7,6 8 5 18 10 WNW 1013,3 - 0,0
10.11.2019 19:00:00 10,2 8,0 11 6 29 16 N 1013,8 15 0,0
10.11.2019 18:00:00 10,2 7,6 20 11 34 18 N 1014,5 - 0,0
10.11.2019 17:00:00 10,3 7,9 23 12 40 22 N 1014,4 - 0,0
10.11.2019 16:00:00 10,2 7,6 26 14 46 25 N 1014,2 15 0,0
10.11.2019 15:00:00 10,5 7,2 28 15 44 24 N 1013,9 - 0,0
10.11.2019 14:00:00 9,8 6,5 29 16 51 28 N 1013,9 - 0,0
10.11.2019 13:00:00 9,5 5,9 35 19 58 31 N 1013,3 - 0,0
10.11.2019 12:00:00 9,2 5,9 37 20 66 36 N 1013,5 - 0,0
10.11.2019 11:00:00 9,5 5,3 44 24 72 39 N 1012,6 - 0,0
10.11.2019 10:00:00 9,5 5,7 48 26 78 42 N 1012,1 15 0,0
10.11.2019 09:00:00 9,3 5,5 66 36 93 50 NNW 1010,9 - 0,0
10.11.2019 08:00:00 9,9 5,7 59 32 94 51 NNW 1010,1 - 0,0
10.11.2019 07:00:00 9,8 4,6 68 37 95 52 NNW 1009,3 - 0,0
10.11.2019 06:00:00 9,8 6,1 58 31 84 45 NNW 1009,4 - 0,0
10.11.2019 05:00:00 10,0 5,8 60 33 82 44 NNW 1009,1 - 0,0
10.11.2019 04:00:00 10,1 6,4 55 30 84 45 NNW 1009,5 - 0,0
10.11.2019 03:00:00 10,1 6,2 53 29 77 42 NNW 1009,3 - 0,2
10.11.2019 02:00:00 10,0 6,2 54 29 77 42 NNW 1009,4 - 0,0
10.11.2019 01:00:00 9,7 6,0 56 31 80 43 NNW 1009,1 - 1,0
10.11.2019 00:00:00 9,6 6,5 48 26 80 43 NNW 1009,7 - 0,0
09.11.2019 23:00:00 9,4 5,6 56 31 89 48 NW 1009,2 - 0,0
09.11.2019 22:00:00 9,6 5,4 61 33 99 54 NNW 1008,8 18 0,0
09.11.2019 21:00:00 9,8 6,1 62 33 97 52 NNW 1008,6 - 0,0
09.11.2019 20:00:00 10,5 5,9 61 33 89 48 NNW 1008,5 - 0,0
09.11.2019 19:00:00 10,3 6,1 61 33 94 51 NNW 1008,2 - 0,0
09.11.2019 18:00:00 10,1 5,3 67 36 93 50 NNW 1007,3 - 0,0
09.11.2019 17:00:00 10,0 4,6 72 39 91 49 NNW 1006,3 - 0,0
09.11.2019 16:00:00 9,3 5,8 63 34 108 59 NNW 1006,1 - 0,6
09.11.2019 15:00:00 9,8 6,5 66 35 101 54 NNW 1005,4 - 0,0
09.11.2019 14:00:00 10,2 6,0 63 34 86 47 NW 1005,5 - 0,0
09.11.2019 13:00:00 10,4 7,8 54 29 79 42 NW 1005,7 - 0,0
09.11.2019 12:00:00 10,6 8,4 46 25 91 49 NW 1006,2 - 0,0
09.11.2019 11:00:00 10,2 9,6 33 18 85 46 NNW 1006,3 - 1,6
09.11.2019 10:00:00 10,7 10,7 41 22 62 33 SSW 1006,3 6 2,8
09.11.2019 09:00:00 10,2 10,0 46 25 60 32 SSW 1007,0 - 0,2
09.11.2019 08:00:00 10,2 8,5 36 20 48 26 SSW 1008,3 - 0,0
09.11.2019 07:00:00 10,1 8,5 30 16 46 25 SW 1009,7 18 0,6
09.11.2019 06:00:00 10,3 7,0 26 14 35 19 SW 1011,0 - 0,0
09.11.2019 05:00:00 9,7 6,8 24 13 33 18 SW 1011,8 - 0,0
09.11.2019 04:00:00 9,3 6,6 19 11 25 14 SW 1012,7 18 0,0
09.11.2019 03:00:00 9,0 6,1 17 9 23 12 WSW 1013,5 - 0,0
09.11.2019 02:00:00 8,0 5,5 18 10 26 14 W 1014,4 - 0,0
09.11.2019 01:00:00 7,8 5,3 19 10 28 15 W 1014,5 18 0,0
09.11.2019 00:00:00 9,0 5,7 21 11 27 15 W 1014,8 - 0,0
08.11.2019 23:00:00 9,1 4,9 10 5 26 14 NW 1014,9 - 0,0
08.11.2019 22:00:00 10,1 4,7 19 11 29 15 NNW 1015,1 18 0,0
08.11.2019 21:00:00 10,1 5,7 17 9 29 16 NNW 1014,6 - 0,0
08.11.2019 20:00:00 10,1 4,9 24 13 40 22 NNW 1014,6 - 0,0
08.11.2019 19:00:00 10,9 6,2 25 13 44 24 N 1014,3 - 0,0
08.11.2019 18:00:00 10,6 6,5 25 14 45 25 N 1013,5 - 0,0
08.11.2019 17:00:00 10,7 6,8 31 17 51 28 N 1012,7 - 0,0
08.11.2019 16:00:00 10,6 6,9 31 17 51 27 N 1012,1 - 0,0
08.11.2019 15:00:00 10,6 6,7 35 19 58 31 N 1011,1 - 0,0
08.11.2019 14:00:00 11,0 6,3 39 21 66 36 N 1010,5 - 0,0
08.11.2019 13:00:00 10,8 6,3 44 24 67 36 N 1009,9 15 0,0
08.11.2019 12:00:00 10,7 6,4 45 24 71 39 N 1009,0 - 0,0
08.11.2019 11:00:00 10,7 6,8 44 24 71 38 N 1008,1 - 0,0
08.11.2019 10:00:00 10,6 6,7 45 24 68 37 N 1007,1 15 0,0
08.11.2019 09:00:00 10,2 7,1 47 25 71 38 N 1005,8 - 0,0
08.11.2019 08:00:00 9,7 7,1 36 20 64 35 NNW 1004,6 - 0,0
08.11.2019 07:00:00 10,2 6,0 43 23 61 33 NNW 1003,4 - 0,0
08.11.2019 06:00:00 10,3 5,9 35 19 59 32 N 1002,3 - 0,0
08.11.2019 05:00:00 10,2 6,2 34 19 49 27 N 1000,9 - 0,0
08.11.2019 04:00:00 10,1 5,9 31 17 48 26 N 999,7 15 0,0
08.11.2019 03:00:00 9,5 7,3 33 18 50 27 NNW 998,8 - 0,0
08.11.2019 02:00:00 8,9 7,2 34 19 53 29 NNW 998,1 - 0,0
08.11.2019 01:00:00 8,7 6,7 42 23 72 39 NNW 997,8 15 0,4
08.11.2019 00:00:00 9,2 6,8 52 28 75 41 NNW 996,7 - 0,0
07.11.2019 23:00:00 9,1 6,9 59 32 79 43 NNW 995,8 - 1,2
07.11.2019 22:00:00 8,9 7,7 52 28 89 48 NNW 995,3 15 0,2
07.11.2019 21:00:00 9,0 6,8 52 28 - - NNW 994,1 - -
07.11.2019 20:00:00 9,2 7,3 50 27 67 36 NNW 992,8 - 0,0
07.11.2019 19:00:00 9,0 6,6 35 19 53 29 WNW 992,3 - 0,0
07.11.2019 18:00:00 8,7 7,3 32 18 57 31 W 992,2 - 0,4
07.11.2019 17:00:00 9,5 7,9 41 22 61 33 SW 992,5 - 0,0
07.11.2019 16:00:00 8,9 6,7 41 22 61 33 SW 993,6 - 0,2
07.11.2019 15:00:00 8,1 5,9 39 21 69 37 WSW 994,9 - 0,0
07.11.2019 14:00:00 10,3 5,5 43 23 63 34 WSW 995,7 - 0,2
07.11.2019 13:00:00 8,8 5,9 28 15 76 41 W 996,8 15 0,0
07.11.2019 12:00:00 8,3 5,9 25 13 47 25 WSW 997,8 - 0,0
07.11.2019 11:00:00 7,6 5,6 21 11 53 28 W 998,4 - 0,0
07.11.2019 10:00:00 8,8 3,4 40 22 64 34 W 998,3 15 0,0
07.11.2019 09:00:00 8,0 5,5 37 20 61 33 W 998,7 - 0,0
07.11.2019 08:00:00 7,2 4,8 29 16 67 36 W 998,4 - 0,0
07.11.2019 07:00:00 7,6 4,0 46 25 79 43 WNW 998,6 15 0,6
07.11.2019 06:00:00 8,3 3,9 42 23 58 32 W 998,9 - 0,0

tt = Température de l'air
td = dewpoint
ff = Vitesse du vent
fx = gusts
dd = Direction du vent
ppp = reduced air pressure
vv = visibility
rr = Quantités de précipitations

stations d'obs. à proximité